This demonstration page uses our WeatherBlox Daily Observations layout. Learn more.

Left ArrowRight Arrow

40.92945, -100.16068

Hourly Observations for September 21, 2017

Temp ( °F °C ) Dew Point ( °F °C ) Humidity (%) Winds ( mph kmh ) Pressure ( in mb ) Visibility ( mi km ) Precip ( " mm )
12:15 am 00:15 Clear 55 12.6 45 7.2 70 70 SE 3 6 29.88 1012 10 16 0.00 0.00
12:35 am 00:35 Clear 55 12.7 45 7 69 69 Calm 29.85 1011 10 16 0.00 0.00
12:55 am 00:55 Clear 53 11.5 45 7.1 75 75 Calm 29.88 1012 10 16 0.00 0.00
1:15 am 01:15 Clear 51 10.6 44 6.6 77 77 Calm 29.88 1012 10 16 0.00 0.00
1:35 am 01:35 Clear 52 11 44 6.5 74 74 Calm 29.88 1012 10 16 0.00 0.00
1:55 am 01:55 Clear 50 10.2 44 6.8 80 80 Calm 29.88 1012 10 16 0.00 0.00
2:15 am 02:15 Clear 51 10.5 44 6.9 79 79 ESE 3 6 29.88 1012 10 16 0.00 0.00
2:35 am 02:35 Clear 52 11.1 44 6.8 75 75 ESE 3 6 29.88 1012 10 16 0.00 0.00
2:55 am 02:55 Clear 51 10.7 44 6.6 76 76 ESE 5 7 29.88 1012 10 16 0.00 0.00
3:15 am 03:15 Clear 55 12.5 46 7.8 73 73 SE 6 9 29.85 1011 10 16 0.00 0.00
3:35 am 03:35 Clear 54 12.3 46 8 75 75 ESE 6 9 29.83 1010 10 16 0.00 0.00
3:55 am 03:55 Clear 54 12.1 46 8 76 76 ESE 6 9 29.83 1010 10 16 0.00 0.00
4:15 am 04:15 Clear 54 12.2 47 8.4 78 78 ESE 6 9 29.83 1010 10 16 0.00 0.00
4:35 am 04:35 Clear 54 12.3 47 8.6 78 78 ESE 6 9 29.80 1009 10 16 0.00 0.00
4:55 am 04:55 Clear 54 12.3 48 8.8 79 79 ESE 5 7 29.80 1009 10 16 0.00 0.00
5:15 am 05:15 Clear 54 12.1 48 9 82 82 ESE 6 9 29.80 1009 10 16 0.00 0.00
5:35 am 05:35 Clear 52 11 47 8.2 83 83 Calm 29.83 1010 10 16 0.00 0.00
5:55 am 05:55 Clear 50 10 46 7.8 86 86 Calm 29.83 1010 10 16 0.00 0.00
6:15 am 06:15 Clear 51 10.8 47 8.3 85 85 ESE 5 7 29.83 1010 10 16 0.00 0.00
6:35 am 06:35 Clear 53 11.7 49 9.2 85 85 SE 5 7 29.80 1009 10 16 0.00 0.00
6:55 am 06:55 Clear 50 9.9 46 7.8 87 87 SE 3 6 29.80 1009 10 16 0.00 0.00
7:15 am 07:15 Clear 49 9.3 46 7.6 89 89 SE 5 7 29.80 1009 10 16 0.00 0.00
7:35 am 07:35 Sunny 52 11.3 49 9.4 88 88 SE 5 7 29.77 1008 10 16 0.00 0.00
7:55 am 07:55 Sunny 53 11.4 49 9.2 86 86 Calm 29.77 1008 10 16 0.00 0.00
8:15 am 08:15 Sunny 54 12.4 50 10.1 86 86 SE 5 7 29.77 1008 10 16 0.00 0.00
8:35 am 08:35 Sunny 56 13.4 51 10.5 83 83 SSE 6 9 29.77 1008 10 16 0.00 0.00
8:55 am 08:55 Sunny 57 14.1 51 10.7 80 80 SE 9 15 29.77 1008 10 16 0.00 0.00
9:15 am 09:15 Sunny 60 15.3 53 11.5 78 78 SE 7 11 29.74 1007 10 16 0.00 0.00
9:35 am 09:35 Sunny 62 16.8 54 12.4 75 75 SE 7 11 29.74 1007 10 16 0.00 0.00
9:55 am 09:55 Sunny 65 18.5 56 13.4 72 72 SE 6 9 29.71 1006 10 16 0.00 0.00
10:15 am 10:15 Sunny 68 19.8 57 14 69 69 SE 6 9 29.68 1005 10 16 0.00 0.00
10:35 am 10:35 Sunny 72 22.2 58 14.6 62 62 SE 7 11 29.65 1004 10 16 0.00 0.00
10:55 am 10:55 Sunny 76 24.3 58 14.7 55 55 SE 10 17 29.65 1004 10 16 0.00 0.00
11:15 am 11:15 Sunny 80 26.6 54 12.1 41 41 SSE 13 20 29.62 1003 10 16 0.00 0.00
11:35 am 11:35 Sunny 82 28 50 10 32 32 SSE 16 26 29.62 1003 10 16 0.00 0.00
11:55 am 11:55 Sunny 84 28.7 49 9.7 31 31 SSE 21 33 29.59 1002 10 16 0.00 0.00
12:15 pm 12:15 Sunny 85 29.2 50 10.1 30 30 S 22 35 29.56 1001 10 16 0.00 0.00
12:35 pm 12:35 Sunny 85 29.5 50 10.1 30 30 S 21 33 29.56 1001 10 16 0.00 0.00
12:55 pm 12:55 Sunny 86 29.9 51 10.6 30 30 S 20 31 29.56 1001 10 16 0.00 0.00
1:15 pm 13:15 Sunny 87 30.5 52 11 30 30 S 18 30 29.56 1001 10 16 0.00 0.00
1:35 pm 13:35 Sunny 88 31.3 50 9.9 27 27 SSE 23 37 29.50 999 10 16 0.00 0.00
1:55 pm 13:55 Sunny 89 31.7 51 10.3 27 27 SSE 20 31 29.50 999 10 16 0.00 0.00
2:15 pm 14:15 Sunny 89 31.7 52 11 28 28 S 17 28 29.50 999 10 16 0.00 0.00
2:35 pm 14:35 Sunny 91 32.8 52 11.1 26 26 SSE 17 28 29.50 999 10 16 0.00 0.00
2:55 pm 14:55 Sunny 93 34 52 11.2 25 25 SSE 18 30 29.50 999 10 16 0.00 0.00
3:15 pm 15:15 Sunny 94 34.6 51 10.3 23 23 S 22 35 29.50 999 10 16 0.00 0.00
3:35 pm 15:35 Sunny 95 34.9 50 10 22 22 S 24 39 29.50 999 10 16 0.00 0.00
3:55 pm 15:55 Sunny 96 35.4 50 9.9 21 21 S 22 35 29.44 997 10 16 0.00 0.00
4:15 pm 16:15 Sunny 96 35.8 49 9.6 20 20 SSE 21 33 29.44 997 10 16 0.00 0.00
4:35 pm 16:35 Sunny 97 36.2 45 7.3 17 17 S 22 35 29.44 997 10 16 0.00 0.00
4:55 pm 16:55 Sunny 98 36.5 44 6.4 16 16 S 18 30 29.44 997 10 16 0.00 0.00
5:15 pm 17:15 Sunny 98 36.6 39 3.9 13 13 S 22 35 29.44 997 10 16 0.00 0.00
5:35 pm 17:35 Sunny 97 36.3 40 4.2 13 13 S 21 33 29.41 996 10 16 0.00 0.00
5:55 pm 17:55 Sunny 97 36 39 3.9 13 13 S 18 30 29.41 996 10 16 0.00 0.00
6:15 pm 18:15 Sunny 96 35.3 41 4.9 15 15 S 18 30 29.41 996 10 16 0.00 0.00
6:35 pm 18:35 Sunny 94 34.6 40 4.5 15 15 SSE 15 24 29.41 996 10 16 0.00 0.00
6:55 pm 18:55 Sunny 92 33.5 41 4.8 16 16 SSE 14 22 29.47 998 10 16 0.00 0.00
7:15 pm 19:15 Sunny 90 32.2 43 6.2 20 20 SSE 14 22 29.47 998 10 16 0.00 0.00
7:35 pm 19:35 Sunny 87 30.3 45 7.2 23 23 SSE 12 19 29.50 999 10 16 0.00 0.00
7:55 pm 19:55 Clear 82 27.7 46 7.6 28 28 SSE 9 15 29.50 999 10 16 0.00 0.00
8:15 pm 20:15 Clear 78 25.4 47 8.1 33 33 SSE 7 11 29.53 1000 10 16 0.00 0.00
8:35 pm 20:35 Clear 76 24.5 46 7.8 34 34 SSE 8 13 29.53 1000 10 16 0.00 0.00
8:55 pm 20:55 Clear 75 23.9 46 7.5 35 35 SSE 8 13 29.53 1000 10 16 0.00 0.00
9:15 pm 21:15 Clear 74 23.6 45 7 34 34 SSE 8 13 29.59 1002 10 16 0.00 0.00
9:35 pm 21:35 Clear 76 24.2 44 6.6 32 32 SSE 10 17 29.56 1001 10 16 0.00 0.00
9:55 pm 21:55 Clear 72 22.1 45 7.1 38 38 SSE 8 13 29.59 1002 10 16 0.00 0.00
10:15 pm 22:15 Clear 73 22.8 44 6.6 35 35 SSE 9 15 29.59 1002 10 16 0.00 0.00
10:35 pm 22:35 Clear 74 23.4 44 6.4 34 34 S 8 13 29.59 1002 10 16 0.00 0.00
10:55 pm 22:55 Clear 73 22.5 44 6.6 36 36 SSE 10 17 29.59 1002 10 16 0.00 0.00
11:15 pm 23:15 Clear 75 23.9 46 7.9 36 36 SSE 16 26 29.56 1001 10 16 0.00 0.00
11:35 pm 23:35 Clear 78 25.6 52 11.3 41 41 SSE 18 30 29.56 1001 10 16 0.00 0.00
11:55 pm 23:55 Clear 78 25.6 56 13.1 46 46 SSE 15 24 29.56 1001 10 16 0.00 0.00

Powered by AerisWeather